Weather Roundup
Issued by NWS

Home | Current Version | Previous Version | Text Only | Print | Product List | Glossary On
Versions: 1 2 3 4 5 6 7 8 9 10 11 12 13 14 15 16 17 18 19 20 21 22 23 24 25 26 27 28 29 30 31 32 33 34 35 36 37 38 39 40 41 42 43 44 45 46 47 48 49 50
000
NZUS93 KARX 011459
HRRWXR

CURRENT HOURLY OBSERVATIONS ACROSS
MUCH OF THE UPPER MISSISSIPPI VALLEY
NATIONAL WEATHER SERVICE LA CROSSE WI
1000 AM CDT TUE SEP 01 2015


...SOUTHEAST MINNESOTA...


CITY           SKY/WX    TMP DP  RH WIND       PRES   REMARKS
ROCHESTER      SUNNY     76  71  85 S8        29.97S
ROCHESTER/MAYO FAIR      76  72  89 SE5       29.96S
WINONA         SUNNY     77  72  83 SE7       29.95F
AUSTIN         MOSUNNY   75  72  88 S8        29.96S
ALBERT LEA     MOSUNNY   75  70  83 SW7       29.95S
DODGE CENTER   MOSUNNY   73  72  94 S5        29.96S
PRESTON        SUNNY     75  69  82 S10       29.98S
OWATONNA       PTSUNNY   75  70  83 S6        29.94S
FARIBAULT      PTSUNNY   77  72  83 SW3       29.94S
$$

...ELSEWHERE IN MINNESOTA...


CITY           SKY/WX    TMP DP  RH WIND       PRES   REMARKS
MINNEAPOLIS    PTSUNNY   78  68  71 S3        29.92S
INTNL FALLS    MOSUNNY   66  58  75 CALM      29.90S
DULUTH         PTSUNNY   74  67  78 N3        29.92S
RED WING       SUNNY     77  72  83 SE6       29.92F
REDWOOD FALLS  CLOUDY    72  67  84 S6        29.90S
MANKATO        PTSUNNY   73  68  83 S5        29.93S
WORTHINGTON    MOSUNNY   73  66  78 S9        29.92S
FAIRMONT       MOSUNNY   73  66  78 S8        29.92F
$$

...SOUTHWEST WISCONSIN...


CITY           SKY/WX    TMP DP  RH WIND       PRES   REMARKS
LA CROSSE      SUNNY     77  71  82 S8        29.96F
PRAIRIE DU CHI MOSUNNY   77  70  78 S3        29.99S
BOSCOBEL       SUNNY     81  71  71 CALM      29.99S
LONE ROCK      NOT AVBL
PLATTEVILLE    SUNNY     77  74  90 S9        30.02S
FORT MC COY    PTSUNNY   77  69  75 S5        29.98S
VIROQUA          N/A     77  74  92 SE5       30.00F
WIS DELLS      SUNNY     78  69  75 S5        30.00F
$$

...ELSEWHERE IN WISCONSIN...


CITY           SKY/WX    TMP DP  RH WIND       PRES   REMARKS
MILWAUKEE      MOSUNNY   80  71  74 SW8       30.03S
MADISON        SUNNY     79  70  74 S7        30.01F
GREEN BAY      SUNNY     78  72  81 SW7       29.99S HAZE
EAU CLAIRE     NOT AVBL
BLACK RVR FLS  FAIR      76  74  95 SW3       29.97S
MEDFORD        CLOUDY    71  71  99 S6        30.00R FOG
WAUSAU         MOSUNNY   74  69  85 S3        29.98S HAZE
WIS RAPIDS     MOSUNNY   78  70  76 SW6       30.00S
MARSHFIELD     MOSUNNY   77  70  79 SW6       29.99S
RICE LAKE      MOSUNNY   75  70  85 S5        29.96S
$$

...NORTHEAST IOWA...


CITY           SKY/WX    TMP DP  RH WIND       PRES   REMARKS
DECORAH        SUNNY     75  72  88 S6        29.98S
MASON CITY     SUNNY     76  72  87 S8        29.98S
CHARLES CITY   SUNNY     75  73  94 S9        29.99R
OELWEIN        SUNNY     75  72  88 S9        30.00S
$$

...ELSEWHERE IN IOWA...


CITY           SKY/WX    TMP DP  RH WIND       PRES   REMARKS
DES MOINES     MOSUNNY   79  69  71 SW13      29.98R
IOWA CITY      SUNNY     80  71  74 SW9       30.02S
FORT DODGE     SUNNY     75  66  73 SW10      29.96S
$$

...NORTHERN ILLINOIS...


CITY           SKY/WX    TMP DP  RH WIND       PRES   REMARKS
CHICAGO-OHARE  MOSUNNY   79  72  79 VRB3      30.05S
CHICAGO-MIDWAY MOSUNNY   82  71  69 SW7       30.05F
MOLINE         SUNNY     82  71  69 SW9       30.02F
ROCKFORD       MOSUNNY   78  72  81 S6        30.05S
PEORIA         SUNNY     83  71  67 W5        30.07S
$$

NOTE: "FAIR" INDICATES FEW OR NO CLOUDS BELOW 12,000 FEET WITH NO
SIGNIFICANT WEATHER AND/OR OBSTRUCTIONS TO VISIBILITY. WIND
SPEEDS ARE IN MILES-PER-HOUR.



USA.gov is the U.S. government's official web portal to all federal, state and local government web resources and services.